Overview Statistics Trail Chart Weather Telemetry Raw packets
 

This is the latest recevied weather packets stored in our database for station/object VK5GR-12. If no packets are shown the sender has not sent any weather packets the latest 10 day(s).

<< 13 14 15 16 17 18 19 >>
Time Temp. Humidity Pressure Rain* Wind** Luminosity Snow
1788339552 12.78° C 71% 1015.3 hPa 0 mm - 0 W/m² -
1788338651 12.78° C 70% 1015.1 hPa 0 mm - 0 W/m² -
1788337747 12.78° C 71% 1014.9 hPa 0 mm - 2 W/m² -
1788336847 12.78° C 71% 1014.9 hPa 0 mm - 10 W/m² -
1788335943 13.89° C 71% 1014.9 hPa 0 mm - 24 W/m² -
1788335042 13.33° C 72% 1014.6 hPa 0 mm - 31 W/m² -
1788334140 13.33° C 71% 1014.9 hPa 0 mm - 51 W/m² -
1788333238 13.33° C 71% 1015.1 hPa 0 mm - 67 W/m² -
1788332334 13.33° C 70% 1014.9 hPa 0 mm - 70 W/m² -
1788331432 13.33° C 70% 1015 hPa 0 mm - 52 W/m² -
1788330528 13.89° C 69% 1015 hPa 0 mm - 74 W/m² -
1788329628 13.89° C 69% 1014.9 hPa 0 mm - 102 W/m² -
1788328727 13.89° C 67% 1014.9 hPa 0 mm - 107 W/m² -
1788327826 13.89° C 66% 1014.9 hPa 0 mm - 125 W/m² -
1788326921 14.44° C 65% 1015 hPa 0 mm - 132 W/m² -
1788326017 14.44° C 64% 1015.1 hPa 0 mm - 162 W/m² -
1788325118 14.44° C 64% 1015.2 hPa 0 mm - 204 W/m² -
1788324217 14.44° C 65% 1015.2 hPa 0 mm - 193 W/m² -
1788323312 14.44° C 65% 1015.1 hPa 0 mm - 165 W/m² -
1788322407 15° C 63% 1015.4 hPa 0 mm - 211 W/m² -
1788321506 15° C 64% 1015.5 hPa 0 mm - 191 W/m² -
1788320602 14.44° C 67% 1015.7 hPa 0 mm - 183 W/m² -
1788319700 14.44° C 68% 1015.8 hPa 0 mm - 287 W/m² -
1788318797 15° C 68% 1015.8 hPa 0 mm - 251 W/m² -
1788317892 14.44° C 69% 1016 hPa 0 mm - 216 W/m² -

* Rain latest hour (hover to see other rain measurements)
** Current wind speed in m/s (hover to see current wind gust speed)